ICEYE-X17 (52762 NORAD) Tracking and Keplerian Element Data

This shows tracking and keplerian element data for the satellite.

Feedback or suggestion? Click here.




ElementValue
Catalog52762
NameICEYE-X17
Epoch Orbit15000
Epoch Day35.16888646
Epoch Year2025
RAAN171.6897
Inclination97.5757
Eccentricity0.0009001
Argument of Perigee14.847
Mean Anonmoly345.3042
Mean Motion15.47452216
Decay Rate0.00054221
L11 52762U 22057AG 25035.16888646 .00054221 00000+0 10519-2 0 9991
L22 52762 97.5757 171.6897 0009001 14.8470 345.3042 15.47452216150001



Live tracking and technical data element details for ICEYE-X17 (NORAD 52762). ICEYE-X17 can be tracked NOW for your location showing map with azimuth and elevation plus other details from your city location.







IsCatalogInMostPopularTable: catalog: 52762, numindb: 99
Update: records affected: 1



GetName: 52762 ICEYE-X17

Hit Count: updated at: Wed, 18 Jun 2025 05:34:13 GMT